Satellite: AUBIESAT
Catalog number: 37854
Epoch time: 13198.19713903
Element set: 537
Inclination: 101.7117 deg
RA of node: 066.6763 deg
Eccentricity: 0.0233998
Arg of perigee: 300.1132 deg
Mean anomaly: 177.5853 deg
Mean motion: 14.84661774 rev/day
Decay rate: 2.355e-05 rev/day^2
Epoch rev: 9291
Checksum: 321
Satellite: HRBE
Catalog number: 37855
Epoch time: 13199.15753432
Element set: 541
Inclination: 101.7131 deg
RA of node: 067.8221 deg
Eccentricity: 0.0234851
Arg of perigee: 297.7826 deg
Mean anomaly: 209.2578 deg
Mean motion: 14.84312880 rev/day
Decay rate: 2.220e-05 rev/day^2
Epoch rev: 9304
Checksum: 297
Satellite: RS-39
Catalog number: 38051
Epoch time: 13199.15845027
Element set: 613
Inclination: 051.6343 deg
RA of node: 060.9886 deg
Eccentricity: 0.0011255
Arg of perigee: 024.0706 deg
Mean anomaly: 069.9369 deg
Mean motion: 15.33552282 rev/day
Decay rate: 1.5755e-04 rev/day^2
Epoch rev: 8253
Checksum: 313
Satellite: E-STAR
Catalog number: 38079
Epoch time: 13199.76896238
Element set: 289
Inclination: 069.4757 deg
RA of node: 106.7644 deg
Eccentricity: 0.0597720
Arg of perigee: 095.2238 deg
Mean anomaly: 347.7678 deg
Mean motion: 14.49672418 rev/day
Decay rate: 5.4618e-04 rev/day^2
Epoch rev: 7431
Checksum: 378
Satellite: GOLIAT
Catalog number: 38085
Epoch time: 13199.73942021
Element set: 222
Inclination: 069.4714 deg
RA of node: 109.2601 deg
Eccentricity: 0.0608261
Arg of perigee: 096.4947 deg
Mean anomaly: 270.5791 deg
Mean motion: 14.47371818 rev/day
Decay rate: 4.0392e-04 rev/day^2
Epoch rev: 7424
Checksum: 310
Satellite: HORYU-2
Catalog number: 38340
Epoch time: 13198.84949729
Element set: 549
Inclination: 098.2166 deg
RA of node: 146.7713 deg
Eccentricity: 0.0012812
Arg of perigee: 150.7667 deg
Mean anomaly: 209.4227 deg
Mean motion: 14.71030123 rev/day
Decay rate: 1.323e-05 rev/day^2
Epoch rev: 6262
Checksum: 301
Satellite: RS-40
Catalog number: 38736
Epoch time: 13198.82298282
Element set: 321
Inclination: 082.4801 deg
RA of node: 136.0284 deg
Eccentricity: 0.0019916
Arg of perigee: 261.0959 deg
Mean anomaly: 098.7868 deg
Mean motion: 12.42869158 rev/day
Decay rate: 1.0e-07 rev/day^2
Epoch rev: 4405
Checksum: 322
Satellite: PROITERES
Catalog number: 38756
Epoch time: 13199.20019030
Element set: 946
Inclination: 098.2514 deg
RA of node: 276.8129 deg
Eccentricity: 0.0012965
Arg of perigee: 014.0741 deg
Mean anomaly: 346.0832 deg
Mean motion: 14.74272195 rev/day
Decay rate: 6.27e-06 rev/day^2
Epoch rev: 4596
Checksum: 306
Satellite: RAIKO
Catalog number: 38852
Epoch time: 13199.61956003
Element set: 283
Inclination: 051.6319 deg
RA of node: 283.7203 deg
Eccentricity: 0.0006347
Arg of perigee: 007.0663 deg
Mean anomaly: 353.0433 deg
Mean motion: 15.96458130 rev/day
Decay rate: 4.25996e-03 rev/day^2
Epoch rev: 4486
Checksum: 310
Satellite: FITSAT 1
Catalog number: 38853
Epoch time: 13184.86912902
Element set: 315
Inclination: 051.6252 deg
RA of node: 351.6077 deg
Eccentricity: 0.0011722
Arg of perigee: 245.9321 deg
Mean anomaly: 114.2104 deg
Mean motion: 16.39337660 rev/day
Decay rate: 6.638326e-02 rev/day^2
Epoch rev: 4270
Checksum: 289
Satellite: TechEdSat
Catalog number: 38854
Epoch time: 13124.93253577
Element set: 290
Inclination: 051.6449 deg
RA of node: 297.0261 deg
Eccentricity: 0.0010505
Arg of perigee: 310.8629 deg
Mean anomaly: 049.0629 deg
Mean motion: 16.38844728 rev/day
Decay rate: 1.1592855e-01 rev/day^2
Epoch rev: 3329
Checksum: 325
Satellite: F 1
Catalog number: 38855
Epoch time: 13129.77714356
Element set: 287
Inclination: 051.5085 deg
RA of node: 272.4145 deg
Eccentricity: 0.0008326
Arg of perigee: 194.2908 deg
Mean anomaly: 166.5495 deg
Mean motion: 16.49710473 rev/day
Decay rate: 2.7424026e-01 rev/day^2
Epoch rev: 3394
Checksum: 332
Satellite: WeWish
Catalog number: 38856
Epoch time: 13069.98095549
Element set: 248
Inclination: 051.6166 deg
RA of node: 215.0521 deg
Eccentricity: 0.0008325
Arg of perigee: 316.0438 deg
Mean anomaly: 044.8765 deg
Mean motion: 16.41348316 rev/day
Decay rate: 1.6701328e-01 rev/day^2
Epoch rev: 2458
Checksum: 318
Satellite: OSSI-1
Catalog number: 39131
Epoch time: 13188.41684431
Element set: 8
Inclination: 064.8841 deg
RA of node: 114.8425 deg
Eccentricity: 0.0051126
Arg of perigee: 026.6892 deg
Mean anomaly: 350.0589 deg
Mean motion: 16.22925119 rev/day
Decay rate: 1.502874e-02 rev/day^2
Epoch rev: 1237
Checksum: 296
Satellite: BEESAT-3
Catalog number: 39134
Epoch time: 13199.81702903
Element set: 227
Inclination: 064.8774 deg
RA of node: 109.2265 deg
Eccentricity: 0.0009944
Arg of perigee: 203.3078 deg
Mean anomaly: 222.6691 deg
Mean motion: 15.00557192 rev/day
Decay rate: 4.134e-05 rev/day^2
Epoch rev: 1357
Checksum: 297
Satellite: BEESAT-2
Catalog number: 39136
Epoch time: 13198.23592964
Element set: 206
Inclination: 064.8783 deg
RA of node: 114.1997 deg
Eccentricity: 0.0010072
Arg of perigee: 203.5120 deg
Mean anomaly: 318.0694 deg
Mean motion: 15.00495388 rev/day
Decay rate: 3.805e-05 rev/day^2
Epoch rev: 1333
Checksum: 294
/EX